Location: Pedholt
(56.0260°N, 10.2097°E)
Time: 21:07:06
(UTC+00:00)

Transit 2A Rocket - Pass Details

Date: 03 August 2021
Orbit: 586 x 917 km, 66.7° (Epoch: 26 September)

Event Time Altitude Azimuth Distance (km) Brightness Sun altitude
Rises 21:01:42 0° 315° (NW) 3,211 10.2 -10.7°
Reaches altitude 10° 21:04:01 10° 313° (NW) 2,333 8.9 -10.9°
Maximum altitude 21:09:21 64° 233° (SW) 916 5.4 -11.3°
Enters shadow 21:14:05 15° 155° (SSE) 2,141 6.6 -11.7°
Drops below altitude 10° 21:15:07 10° 153° (SSE) 2,521 - -11.8°
Sets 21:17:42 0° 151° (SSE) 3,489 - -11.9°
